{"data":{"norad_id":58240,"intl_designator":"2023-171L","name":"STARLINK-30848","alt_names":[],"object_type":"PAYLOAD","status":"ACTIVE","operator":null,"country":"US","launch_date":"2023-11-08","launch_site_code":"AFETR","launch_vehicle":null,"mission":null,"orbit_class":"UNKNOWN","rcs_meters":null,"size_class":null,"mass_kg":null,"dimensions":null,"purposes":["comms"],"wikipedia_slug":null,"has_3d_model":false,"image_url":null,"decayed_at":null,"tle_current":{"epoch":"2026-05-25T04:21:02.610144Z","epoch_age_seconds":55415,"freshness":"FRESH","line1":"1 58240U 23171L   26145.18128021  .00000562  00000+0  29940-4 0  9994","line2":"2 58240  43.0032 213.1721 0001693 267.5542  92.5116 15.27577869141434","mean_motion":15.27577869,"eccentricity":0.0001693,"inclination_deg":43.0032,"raan_deg":213.1721,"arg_perigee_deg":267.5542,"mean_anomaly_deg":92.5116,"bstar":2.994e-5,"rev_number":14143,"period_min":94.266880217548,"perigee_km":481.89387714133,"apogee_km":484.21707691406,"semimajor_km":6861.1924770277,"source":"CELESTRAK","updated_at":"2026-05-25T13:38:18.581263Z"}}}